KLM55Z EHAM-EPWR

Flight info

Callsign KLM55Z
Flight time N/A
Altitude 37000
Route ARNEM L620 HMM DCT GOBAX DCT BEBKU DCT LASIS Z419 VAGNI
Aircraft A21N/M-SDE2E3FGHIRWXY/LB1

Departure

Time 2026-04-30 14:40
Airport Amsterdam Airport Schiphol (EHAM)

Arrival

Time N/A
Airport Copernicus Wrocław Airport (EPWR)
Time Latitude Longitude Altitude Speed Heading
2026-04-30 14:13 52.31006 4.77020 4 ft 0 kts 179°
2026-04-30 14:31 52.31051 4.77012 4 ft 4 kts 171°
2026-04-30 14:31 52.31082 4.77034 4 ft 4 kts 272°
2026-04-30 14:31 52.31081 4.77056 4 ft 0 kts 274°
2026-04-30 14:34 52.31082 4.77041 4 ft 4 kts 274°
2026-04-30 14:34 52.31095 4.76970 4 ft 8 kts 303°
2026-04-30 14:34 52.31148 4.76941 4 ft 10 kts 25°
2026-04-30 14:35 52.31286 4.77088 4 ft 14 kts 33°
2026-04-30 14:35 52.31370 4.77176 4 ft 15 kts 25°
2026-04-30 14:35 52.31481 4.77198 4 ft 17 kts
2026-04-30 14:36 52.31560 4.77176 4 ft 11 kts 310°
2026-04-30 14:36 52.31567 4.77044 4 ft 13 kts 266°
2026-04-30 14:36 52.31561 4.76888 4 ft 15 kts 266°
2026-04-30 14:36 52.31555 4.76713 4 ft 16 kts 266°
2026-04-30 14:37 52.31549 4.76519 5 ft 18 kts 267°
2026-04-30 14:37 52.31542 4.76309 5 ft 19 kts 267°
2026-04-30 14:37 52.31534 4.76083 5 ft 21 kts 266°
2026-04-30 14:37 52.31525 4.75842 4 ft 22 kts 267°
2026-04-30 14:38 52.31517 4.75592 4 ft 23 kts 267°
2026-04-30 14:38 52.31508 4.75322 4 ft 24 kts 267°
2026-04-30 14:38 52.31498 4.75038 4 ft 26 kts 267°
2026-04-30 14:38 52.31491 4.74805 4 ft 16 kts 267°
2026-04-30 14:39 52.31518 4.74670 4 ft 14 kts 331°
2026-04-30 14:39 52.31621 4.74669 5 ft 16 kts 18°
2026-04-30 14:39 52.31666 4.74758 5 ft 11 kts 78°
2026-04-30 14:40 52.31698 4.75700 4 ft 98 kts 86°
2026-04-30 14:40 52.31746 4.77114 4 ft 149 kts 87°
2026-04-30 14:40 52.31813 4.78810 450 ft 150 kts 88°
2026-04-30 14:40 52.31887 4.80531 992 ft 154 kts 88°
2026-04-30 14:41 52.31936 4.82305 1533 ft 160 kts 90°
2026-04-30 14:41 52.31987 4.84237 1954 ft 181 kts 89°
2026-04-30 14:41 52.32004 4.86475 2266 ft 213 kts 97°
2026-04-30 14:41 52.31558 4.88915 2748 ft 235 kts 112°
2026-04-30 14:42 52.30884 4.91393 3589 ft 240 kts 115°
2026-04-30 14:42 52.30209 4.93881 4536 ft 240 kts 115°
2026-04-30 14:42 52.29557 4.96405 5442 ft 244 kts 112°
2026-04-30 14:42 52.29055 4.99043 6313 ft 248 kts 108°
2026-04-30 14:43 52.28583 5.01767 7145 ft 251 kts 107°
2026-04-30 14:43 52.28105 5.04526 7962 ft 254 kts 107°
2026-04-30 14:43 52.27619 5.07326 8793 ft 258 kts 107°
2026-04-30 14:43 52.27126 5.10164 9641 ft 261 kts 107°
2026-04-30 14:44 52.26624 5.13032 10478 ft 265 kts 107°
2026-04-30 14:44 52.26098 5.16038 10874 ft 286 kts 106°
2026-04-30 14:44 52.25568 5.19303 11160 ft 309 kts 104°
2026-04-30 14:44 52.25071 5.22843 11411 ft 330 kts 103°
2026-04-30 14:45 52.24558 5.26538 11838 ft 343 kts 103°
2026-04-30 14:45 52.24024 5.30354 12513 ft 348 kts 103°
2026-04-30 14:45 52.23477 5.34212 13222 ft 351 kts 103°
2026-04-30 14:45 52.22927 5.38086 13925 ft 354 kts 103°
2026-04-30 14:46 52.22367 5.42018 14537 ft 358 kts 103°
2026-04-30 14:46 52.21802 5.45996 15124 ft 362 kts 103°
2026-04-30 14:46 52.21231 5.50009 15691 ft 366 kts 103°
2026-04-30 14:46 52.20648 5.54065 16241 ft 369 kts 103°
2026-04-30 14:47 52.20058 5.58157 16799 ft 372 kts 103°
2026-04-30 14:47 52.19463 5.62286 17341 ft 376 kts 103°
2026-04-30 14:47 52.18861 5.66449 17866 ft 379 kts 103°
2026-04-30 14:47 52.18251 5.70649 18382 ft 383 kts 103°
2026-04-30 14:48 52.17642 5.74833 18853 ft 386 kts 103°
2026-04-30 14:48 52.17019 5.79098 19316 ft 389 kts 103°
2026-04-30 14:48 52.16389 5.83408 19750 ft 393 kts 103°
2026-04-30 14:48 52.15752 5.87751 20197 ft 396 kts 103°
2026-04-30 14:49 52.15110 5.92117 20690 ft 397 kts 103°
2026-04-30 14:49 52.14467 5.96478 21188 ft 398 kts 103°
2026-04-30 14:49 52.13812 6.00893 21650 ft 402 kts 103°
2026-04-30 14:49 52.13153 6.05332 22035 ft 406 kts 103°
2026-04-30 14:50 52.11816 6.14306 23008 ft 410 kts 103°
2026-04-30 14:50 52.11147 6.18772 23408 ft 414 kts 103°
2026-04-30 14:51 52.09762 6.27957 24158 ft 422 kts 103°
2026-04-30 14:51 52.09059 6.32604 24542 ft 424 kts 103°
2026-04-30 14:51 52.07642 6.41967 25270 ft 429 kts 103°
2026-04-30 14:52 52.06927 6.46683 25639 ft 431 kts 103°
2026-04-30 14:52 52.05478 6.56132 26498 ft 432 kts 103°
2026-04-30 14:52 52.04747 6.60884 26747 ft 436 kts 103°
2026-04-30 14:53 52.03274 6.70452 27332 ft 441 kts 103°
2026-04-30 14:53 52.02525 6.75286 27744 ft 441 kts 103°
2026-04-30 14:54 52.01013 6.84955 28504 ft 441 kts 103°
2026-04-30 14:54 51.99495 6.94579 29295 ft 440 kts 103°
2026-04-30 14:55 51.97974 7.04153 29870 ft 443 kts 103°
2026-04-30 14:55 51.97194 7.09002 30117 ft 446 kts 103°
2026-04-30 14:55 51.95462 7.18617 30911 ft 441 kts 105°
2026-04-30 14:56 51.93698 7.28126 31504 ft 441 kts 105°
2026-04-30 14:56 51.91932 7.37619 32148 ft 439 kts 105°
2026-04-30 14:57 51.91058 7.42287 32428 ft 439 kts 105°
2026-04-30 14:57 51.89289 7.51702 33108 ft 436 kts 105°
2026-04-30 14:58 51.87529 7.61035 33815 ft 432 kts 105°
2026-04-30 14:58 51.86648 7.65680 34095 ft 431 kts 105°
2026-04-30 14:58 51.85461 7.75116 34573 ft 427 kts 92°
2026-04-30 14:59 51.85120 7.84677 34980 ft 426 kts 91°
2026-04-30 15:00 51.84589 7.98963 35556 ft 426 kts 91°
2026-04-30 15:00 51.84205 8.08516 35926 ft 425 kts 91°
2026-04-30 15:01 51.83813 8.18049 36283 ft 425 kts 91°
2026-04-30 15:01 51.83683 8.21205 36405 ft 424 kts 91°
2026-04-30 15:01 51.83229 8.32244 36846 ft 423 kts 91°
2026-04-30 15:02 51.83026 8.36991 37020 ft 423 kts 91°
2026-04-30 15:02 51.82820 8.41724 37192 ft 422 kts 91°
2026-04-30 15:03 51.82198 8.55950 37495 ft 423 kts 91°
2026-04-30 15:03 51.81774 8.65416 37461 ft 422 kts 91°
2026-04-30 15:04 51.80678 8.88978 37459 ft 422 kts 91°
2026-04-30 15:06 51.79532 9.12587 37473 ft 423 kts 91°
2026-04-30 15:07 51.78580 9.31518 37470 ft 423 kts 91°
2026-04-30 15:08 51.77602 9.50427 37468 ft 423 kts 91°
2026-04-30 15:09 51.76340 9.73966 37479 ft 422 kts 91°
2026-04-30 15:10 51.75291 9.92839 37479 ft 422 kts 91°
2026-04-30 15:11 51.73658 10.21078 37479 ft 422 kts 91°
2026-04-30 15:13 51.72253 10.44605 37487 ft 423 kts 91°
2026-04-30 15:14 51.70188 10.77642 37492 ft 423 kts 91°
2026-04-30 15:17 51.67418 11.20031 37502 ft 424 kts 91°
2026-04-30 15:19 51.64823 11.57633 37499 ft 422 kts 91°